Ainsworth, NE

12:08 PM CST on December 16, 2017 (GMT -0600)
Ainsworth Municipal

Weather History for KANW - August, 2014

Change the Weather History Date:

Monday, August 11, 2014

  Actual Average Record
Temperature  
Mean Temperature 64 °F -  
Max Temperature 75 °F 83 °F 127 °F (1997)
Min Temperature 52 °F 57 °F 44 °F (2004)
Degree Days  
Heating Degree Days 2    
Growing Degree Days 14 (Base 50)    
Moisture  
Dew Point 53 °F    
Average Humidity 68    
Maximum Humidity 97    
Minimum Humidity 38    
Precipitation  
Precipitation 0.00 in - - ()
Sea Level Pressure  
Sea Level Pressure 30.26 in    
Wind  
Wind Speed 6 mph (NNW)    
Max Wind Speed 14 mph    
Max Gust Speed 21 mph    
Visibility 10 miles    
Events      
Averages and records for this station are not official NWS values.
T = Trace of Precipitation, MM = Missing Value Source: NWS Daily Summary

Daily Weather History Graph

Daily Weather History Graph

Search for Another Location

Airport or City:

Trip Planner

Search our weather history database for the weather conditions in past years. The results will help you decide how hot, cold, wet, or windy it might be!

Date:

Astronomy

Aug. 11, 2014 Rise Set
Actual Time 6:42 AM CDT 8:47 PM CDT
Civil Twilight 6:11 AM CDT 9:17 PM CDT
Nautical Twilight 5:33 AM CDT 9:55 PM CDT
Astronomical Twilight 4:52 AM CDT 10:36 PM CDT
Moon 9:13 PM CDT (8/11) 7:52 AM CDT (8/11)
Length of Visible Light 15h 06m
Length of Day
14h 04m
Full, 99% of the Moon is Illuminated
Aug 11
Full
Aug 17
Last Quarter
Aug 25
New
Sep 2
First Quarter
Sep 8
Full

Hourly Weather History & Observations

Time (CDT) Temp. Dew Point Humidity Pressure Visibility Wind Dir Wind Speed Gust Speed Precip Events Conditions
12:15 AM 62.1 °F 61.2 °F 97% 30.22 in 10.0 mi NNW 4.6 mph - N/A   Clear
12:35 AM 62.1 °F 60.4 °F 94% 30.23 in 10.0 mi NW 3.5 mph - N/A   Clear
12:55 AM 61.5 °F 60.3 °F 96% 30.23 in 10.0 mi WNW 4.6 mph - N/A   Clear
1:15 AM 61.7 °F 60.1 °F 94% 30.24 in 10.0 mi WNW 4.6 mph - N/A   Clear
1:35 AM 60.8 °F 59.2 °F 94% 30.24 in 10.0 mi WNW 3.5 mph - N/A   Clear
1:55 AM 60.8 °F 59.0 °F 94% 30.24 in 10.0 mi NW 4.6 mph - N/A   Clear
2:15 AM 59.9 °F 56.5 °F 88% 30.24 in 10.0 mi NW 5.8 mph - N/A   Clear
2:35 AM 59.4 °F 55.2 °F 86% 30.24 in 10.0 mi NNW 4.6 mph - N/A   Clear
2:55 AM 57.2 °F 53.6 °F 88% 30.24 in 10.0 mi Calm Calm - N/A   Clear
3:15 AM 57.2 °F 53.6 °F 88% 30.25 in 10.0 mi WNW 3.5 mph - N/A   Clear
3:35 AM 57.4 °F 53.6 °F 87% 30.25 in 10.0 mi NW 5.8 mph - N/A   Clear
3:55 AM 56.8 °F 52.7 °F 86% 30.25 in 10.0 mi NNW 4.6 mph - N/A   Clear
4:15 AM 55.4 °F 53.1 °F 92% 30.25 in 10.0 mi NNW 5.8 mph - N/A   Clear
4:35 AM 55.0 °F 52.9 °F 92% 30.25 in 10.0 mi NNW 4.6 mph - N/A   Clear
4:55 AM 54.5 °F 52.7 °F 94% 30.25 in 10.0 mi NNW 4.6 mph - N/A   Clear
5:15 AM 54.0 °F 52.3 °F 94% 30.25 in 10.0 mi West 3.5 mph - N/A   Clear
5:35 AM 53.6 °F 52.2 °F 95% 30.25 in 10.0 mi WNW 3.5 mph - N/A   Clear
5:55 AM 53.8 °F 51.6 °F 92% 30.25 in 10.0 mi WNW 5.8 mph - N/A   Clear
6:15 AM 52.9 °F 51.4 °F 95% 30.25 in 10.0 mi WNW 5.8 mph - N/A   Clear
6:35 AM 53.2 °F 51.6 °F 94% 30.25 in 10.0 mi WNW 5.8 mph - N/A   Clear
6:55 AM 52.7 °F 50.9 °F 94% 30.25 in 10.0 mi WNW 5.8 mph - N/A   Clear
7:15 AM 53.6 °F 50.9 °F 91% 30.26 in 10.0 mi West 5.8 mph - N/A   Clear
7:35 AM 54.0 °F 51.3 °F 91% 30.27 in 10.0 mi West 5.8 mph - N/A   Clear
7:55 AM 55.4 °F 51.8 °F 88% 30.28 in 10.0 mi WNW 6.9 mph - N/A   Clear
8:15 AM 55.9 °F 52.3 °F 88% 30.28 in 10.0 mi WNW 5.8 mph - N/A   Clear
8:35 AM 57.2 °F 52.9 °F 85% 30.29 in 10.0 mi NW 5.8 mph - N/A   Clear
8:55 AM 59.0 °F 54.3 °F 84% 30.29 in 10.0 mi NW 4.6 mph - N/A   Clear
9:15 AM 60.8 °F 54.1 °F 79% 30.29 in 10.0 mi NW 6.9 mph - N/A   Clear
9:35 AM 62.8 °F 55.4 °F 77% 30.29 in 10.0 mi NW 5.8 mph - N/A   Clear
9:55 AM 64.8 °F 53.8 °F 68% 30.29 in 10.0 mi NNW 8.1 mph - N/A   Clear
10:15 AM 65.8 °F 52.3 °F 62% 30.29 in 10.0 mi NNW 10.4 mph - N/A   Clear
10:35 AM 66.4 °F 51.8 °F 59% 30.29 in 10.0 mi North 12.7 mph - N/A   Clear
10:55 AM 67.5 °F 52.9 °F 59% 30.29 in 10.0 mi NNW 11.5 mph 16.1 mph N/A   Clear
11:15 AM 68.4 °F 50.9 °F 54% 30.29 in 10.0 mi North 12.7 mph 19.6 mph N/A   Clear
11:35 AM 69.3 °F 51.3 °F 53% 30.29 in 10.0 mi North 12.7 mph - N/A   Clear
11:55 AM 69.6 °F 51.4 °F 52% 30.29 in 10.0 mi North 12.7 mph 17.3 mph N/A   Clear
12:15 PM 70.9 °F 49.8 °F 47% 30.29 in 10.0 mi North 12.7 mph 19.6 mph N/A   Clear
12:35 PM 71.1 °F 49.6 °F 47% 30.29 in 10.0 mi NNE 11.5 mph - N/A   Clear
12:55 PM 71.8 °F 50.5 °F 47% 30.29 in 10.0 mi NNE 13.8 mph 17.3 mph N/A   Clear
1:15 PM 71.8 °F 49.6 °F 45% 30.28 in 10.0 mi NNE 12.7 mph 17.3 mph N/A   Clear
1:35 PM 72.0 °F 49.5 °F 45% 30.28 in 10.0 mi NNE 11.5 mph - N/A   Clear
1:55 PM 72.1 °F 50.0 °F 46% 30.28 in 10.0 mi North 13.8 mph 18.4 mph N/A   Clear
2:15 PM 73.2 °F 50.5 °F 45% 30.28 in 10.0 mi North 12.7 mph 18.4 mph N/A   Clear
2:35 PM 73.9 °F 50.0 °F 43% 30.27 in 10.0 mi North 12.7 mph 17.3 mph N/A   Clear
2:55 PM 74.3 °F 50.4 °F 43% 30.27 in 10.0 mi North 6.9 mph 20.7 mph N/A   Clear
3:15 PM 74.1 °F 47.8 °F 39% 30.26 in 10.0 mi North 9.2 mph - N/A   Clear
3:35 PM 74.5 °F 48.2 °F 39% 30.26 in 10.0 mi North 12.7 mph 18.4 mph N/A   Clear
3:55 PM 74.5 °F 48.6 °F 40% 30.25 in 10.0 mi North 9.2 mph - N/A   Clear
4:15 PM 74.8 °F 48.7 °F 40% 30.25 in 10.0 mi North 12.7 mph 17.3 mph N/A   Clear
4:55 PM 74.8 °F 47.8 °F 38% 30.24 in 10.0 mi NNE 6.9 mph - N/A   Clear
5:15 PM 75.2 °F 48.9 °F 39% 30.24 in 10.0 mi North 6.9 mph - N/A   Clear
5:35 PM 75.2 °F 48.9 °F 39% 30.23 in 10.0 mi North 11.5 mph - N/A   Clear
5:55 PM 74.7 °F 47.3 °F 38% 30.23 in 10.0 mi NNE 8.1 mph - N/A   Clear
6:15 PM 74.7 °F 49.6 °F 41% 30.23 in 10.0 mi North 8.1 mph - N/A   Clear
6:35 PM 74.3 °F 49.1 °F 41% 30.22 in 10.0 mi North 5.8 mph - N/A   Clear
6:55 PM 73.8 °F 51.3 °F 45% 30.22 in 10.0 mi North 8.1 mph - N/A   Clear
7:15 PM 73.6 °F 51.6 °F 46% 30.22 in 10.0 mi NNE 4.6 mph - N/A   Clear
7:35 PM 72.5 °F 53.1 °F 50% 30.22 in 10.0 mi Calm Calm - N/A   Clear
7:55 PM 71.1 °F 54.0 °F 55% 30.22 in 10.0 mi Calm Calm - N/A   Clear
8:15 PM 70.2 °F 55.6 °F 60% 30.22 in 10.0 mi Calm Calm - N/A   Clear
8:35 PM 69.1 °F 54.9 °F 60% 30.22 in 10.0 mi Calm Calm - N/A   Clear
8:55 PM 66.9 °F 55.8 °F 67% 30.22 in 10.0 mi NE 3.5 mph - N/A   Clear
9:15 PM 66.2 °F 55.4 °F 68% 30.22 in 10.0 mi ENE 4.6 mph - N/A   Clear